Location: Ellerstadt
(49.4644°N, 8.2615°E)
Time: 19:45:30
(UTC+00:00)

Vanguard 1 - Pass Details

Date: 20 June 2021
Orbit: 651 x 3832 km, 34.2° (Epoch: 27 July)

Event Time Altitude Azimuth Distance (km) Brightness Sun altitude
Rises 22:07:54 0° 249° (WSW) 7,971 14.7 -14.9°
Reaches altitude 10° 22:13:48 10° 245° (WSW) 6,870 14.3 -15.2°
Maximum altitude 22:33:54 47° 181° (S) 3,619 12.5 -16.1°
Drops below altitude 10° 22:46:44 10° 113° (ESE) 4,542 13.1 -16.5°
Sets 22:49:44 0° 108° (ESE) 5,187 13.5 -16.6°
